Regional Weather Roundup
Issued by NWS

Home | Current Version | Previous Version | Text Only | Print | Product List | Glossary On
Versions: 1 2 3 4 5 6 7 8 9 10 11 12 13 14 15 16 17 18 19 20 21 22 23 24 25 26 27 28 29 30 31 32 33 34 35 36 37 38 39 40 41 42 43 44 45 46 47 48 49 50
380
ASUS43 KDTX 240401
RWRMI
MICHIGAN HOURLY REGIONAL WEATHER ROUNDUP
NATIONAL WEATHER SERVICE DETROIT/PONTIAC MI
1100 PM EST THU FEB 23 2017

NOTE: "FAIR" INDICATES FEW OR NO CLOUDS BELOW 12,000 FEET WITH NO
SIGNIFICANT WEATHER AND/OR OBSTRUCTION TO VISIBILITY.

MIZ047>049-052>055-059>063-066>070-074>076-081>083-240500-
SOUTHEAST LOWER MICHIGAN

CITY           SKY/WX    TMP DP  RH WIND       PRES   REMARKS
ADRIAN         LGT RAIN  44  41  89 E20G25    29.79F
ALMA           CLOUDY    40  35  82 NE12G20   29.85S WCI  33
ANN ARBOR      CLOUDY    43  37  79 NE9       29.82R
BAD AXE        PTCLDY    35  31  83 NE10      29.88R WCI  28
CARO           MOCLDY    37  33  84 NE10      29.87R WCI  30
DETROIT CITY   CLOUDY    41  35  79 NE9       29.85R
DETROIT        CLOUDY    43  36  76 NE9       29.84R
FLINT          CLOUDY    39  34  82 E17       29.85R WCI  30
GROSSE ILE     CLOUDY    41  36  82 NE12      29.82R
HILLSDALE      LGT RAIN  46  45  93 E10       29.75F
HOWELL         LGT RAIN  44  38  78 E9        29.83R

CITY           SKY/WX    TMP DP  RH WIND       PRES   REMARKS
JACKSON        LGT RAIN  47  43  86 NE6       29.79F
LAMBERTVILLE   RAIN      46  41  84 E10       29.80S
LANSING        LGT RAIN  43  36  76 NE9       29.83R
LAPEER         MOCLDY    37  33  85 E6        29.86S WCI  32
MASON          LGT RAIN  46  41  83 NE9       29.81R
MONROE         LGT RAIN  43  40  89 NE8       29.82R
MT. CLEMENS    CLOUDY    39  36  87 N6        29.83S WCI  35
PONTIAC        CLOUDY    38  33  82 NE13G18   29.83R WCI  30
PORT HOPE        N/A     36  32  85 N12       29.88S WCI  28
PORT HURON     CLOUDY    36  34  93 N3        29.86R
TRI CITIES     CLOUDY    39  36  89 NE13      29.87F WCI  31
MIDLAND        CLOUDY    37  32  81 E10       29.87S WCI  30
TROY           CLOUDY    40  34  78 NE9       29.87R WCI  34
SAGINAW HB     CLOUDY    39  32  75 NE10      29.87R WCI  32
$$
MIZ043>046-050>051-056>058-064>065-071>073-077>080-240500-
SOUTHWEST LOWER MICHIGAN

CITY           SKY/WX    TMP DP  RH WIND       PRES   REMARKS
BATTLE CREEK   LGT RAIN  46  43  89 NE14      29.76F
BENTON HARBOR  LGT RAIN  44  41  89 NE6       29.72F FOG
BIG RAPIDS     CLOUDY    36  31  82 NE6       29.84F WCI  31
COLDWATER      CLOUDY    48  46  93 NE9       29.75F
FREMONT        CLOUDY    38  32  78 NE10      29.81F WCI  31
HOLLAND        LGT RAIN  43  37  79 NE12G24   29.76F
GRAND RAPIDS   LGT RAIN  41  36  82 NE14      29.80S
IONIA          LGT RAIN  40  35  84 NE12      29.82R WCI  32
KALAMAZOO      LGT RAIN  47  42  83 E9        29.75F
LUDINGTON      MIX PCPN  33  32  94 NE7       29.84F WCI  27
MARSHALL       RAIN      46  45  95 NE8       29.75F
MOUNT PLEASANT CLOUDY    38  32  78 NE6       29.85F WCI  34
MUSKEGON       LGT RAIN  41  35  79 NE12      29.80F
SOUTH HAVEN    LGT RAIN  44  43  96 E6        29.74R
$$
MIZ016>042-240500-
NORTHERN LOWER MICHIGAN

CITY           SKY/WX    TMP DP  RH WIND       PRES   REMARKS
ALPENA         CLOUDY    32  24  72 NW12      29.92F WCI  23
BEAVER ISLAND  CLOUDY    29  26  88 CALM      29.96R
BELLAIRE       LGT SNOW  32  27  81 N8        29.94S WCI  25
CADILLAC       LGT SNOW  32  30  91 NE10      29.85F WCI  24
CHARLEVOIX     CLOUDY    32  24  72 E3        29.97S
FRANKFORT      CLOUDY    35  28  76 NE8       29.90R WCI  29
GAYLORD        CLOUDY    31  23  72 NE6       29.91R WCI  25
GRAYLING       CLOUDY    34  28  79 NE10      29.89S WCI  26
HARBOR SPRINGS CLOUDY    32  22  66 NE3       29.95R
HOUGHTON LAKE  MIX PCPN  34  28  79 NE9       29.87F WCI  27
MANISTEE       LGT SNOW  33  30  88 NE9       29.87F FOG     WCI  25
OSCODA         CLOUDY    36  28  73 N13       29.88S WCI  27
PELLSTON       CLOUDY    31  23  72 N3        29.95S
ROGERS CITY    CLOUDY    33  23  69 NW12G17   29.95R WCI  24
TRAVERSE CITY  LGT SNOW  33  28  81 NE10      29.91F WCI  25
$$
MIZ007>008-015-240500-
EASTERN UPPER MICHIGAN

CITY           SKY/WX    TMP DP  RH WIND       PRES   REMARKS
KINROSS        PTCLDY    27  23  85 W3        29.95R
MACKINAC ISLAN MOCLDY    30  24  79 NW3       29.95S
NEWBERRY       CLOUDY    29  27  90 CALM      29.94S
S. S. MARIE    PTCLDY    32  21  64 N3        29.94R
MUNISING         N/A     33  25  72 N10       29.96R WCI  25
$$
MIZ004>006-011>014-085-240500-
CENTRAL UPPER MICHIGAN

CITY           SKY/WX    TMP DP  RH WIND       PRES   REMARKS
MANISTIQUE     CLOUDY    29  25  84 CALM      29.95S
ESCANABA       CLOUDY    33  24  69 N5        29.96F WCI  29
MENOMINEE      CLOUDY    33  25  72 NE10      29.95S WCI  25
SAWYER-GWINN   CLOUDY    28  25  89 N3        29.94F
$$
MIZ001>003-009>011-084-240500-
WESTERN UPPER MICHIGAN

CITY           SKY/WX    TMP DP  RH WIND       PRES   REMARKS
IRON MOUNTAIN  CLOUDY    31  23  72 N8        29.93S WCI  23
HOUGHTON       CLOUDY    28  20  71 N9        29.93S WCI  19
COPPER HARBOR    N/A     30  24  78 NE21      29.96S WCI  17
IRONWOOD       PTCLDY    24  21  88 CALM      29.91F
$$

ABBREVIATIONS USED IN REMARKS
   TC - TEMPERATURE IN CELSIUS
  WCI - WIND CHILL INDEX
   HX - HEAT INDEX
  VSB - VISIBILITY





USA.gov is the U.S. government's official web portal to all federal, state and local government web resources and services.